| time (UTC) | temp C | wind direction | speed KPH | gust KPH | rain 1hr cm | rain 24hr cm | rain mn cm | humidity % | barometer mb |
| 20260503183740 | 17 | 86 | 3.2 | 16.1 | 0.00 | 0.00 | 0.00 | 42 | 1020.3 |
| 20260503183159 | 17 | 128 | 6.4 | 14.5 | 0.00 | 0.00 | 0.00 | 42 | 1020.3 |
| 20260503182643 | 18 | 113 | 4.8 | 16.1 | 0.00 | 0.00 | 0.00 | 42 | 1020.3 |
| 20260503182103 | 18 | 130 | 6.4 | 19.3 | 0.00 | 0.00 | 0.00 | 42 | 1020.2 |
| 20260503181719 | 18 | 123 | 9.7 | 19.3 | 0.00 | 0.00 | 0.00 | 41 | 1020.2 |
| 20260503181258 | 18 | 117 | 9.7 | 17.7 | 0.00 | 0.00 | 0.00 | 41 | 1020.1 |
| 20260503181153 | 18 | 114 | 8.0 | 20.9 | 0.00 | 0.00 | 0.00 | 40 | 1020.0 |
| 20260503180136 | 18 | 100 | 11.3 | 22.5 | 0.00 | 0.00 | 0.00 | 39 | 1020.0 |
| 20260503180127 | 18 | 94 | 9.7 | 22.5 | 0.00 | 0.00 | 0.00 | 39 | 1020.0 |
| 20260503175902 | 18 | 125 | 8.0 | 22.5 | 0.00 | 0.00 | 0.00 | 38 | 1020.0 |
| 20260503175226 | 18 | 125 | 8.0 | 22.5 | 0.00 | 0.00 | 0.00 | 38 | 1020.0 |
| 20260503175201 | 19 | 90 | 11.3 | 20.9 | 0.00 | 0.00 | 0.00 | 37 | 1020.0 |
| 20260503174704 | 19 | 124 | 11.3 | 20.9 | 0.00 | 0.00 | 0.00 | 38 | 1020.1 |
| 20260503173740 | 19 | 102 | 11.3 | 27.4 | 0.00 | 0.00 | 0.00 | 37 | 1020.1 |
| 20260503173706 | 19 | 55 | 17.7 | 27.4 | 0.00 | 0.00 | 0.00 | 35 | 1020.1 |
| 20260503172711 | 20 | 97 | 11.3 | 27.4 | 0.00 | 0.00 | 0.00 | 35 | 1020.1 |
| 20260503172200 | 20 | 47 | 16.1 | 32.2 | 0.00 | 0.00 | 0.00 | 34 | 1020.1 |
| 20260503171734 | 20 | 133 | 9.7 | 22.5 | 0.00 | 0.00 | 0.00 | 34 | 1020.1 |
| 20260503171212 | 20 | 118 | 16.1 | 22.5 | 0.00 | 0.00 | 0.00 | 34 | 1020.1 |
| 20260503170720 | 20 | 130 | 11.3 | 33.8 | 0.00 | 0.00 | 0.00 | 35 | 1020.1 |
| 20260503170300 | 20 | 123 | 12.9 | 33.8 | 0.00 | 0.00 | 0.00 | 34 | 1020.1 |
| 20260503150653 | 20 | 124 | 16.1 | 24.1 | 0.00 | 0.00 | 0.00 | 34 | 1020.6 |
| 20260503150318 | 20 | 86 | 8.0 | 24.1 | 0.00 | 0.00 | 0.00 | 35 | 1020.6 |
| 20260503131231 | 19 | 99 | 12.9 | 24.1 | 0.00 | 0.00 | 0.00 | 35 | 1022.2 |
| 20260503130737 | 19 | 172 | 6.4 | 24.1 | 0.00 | 0.00 | 0.00 | 35 | 1022.3 |
| 20260503130208 | 19 | 123 | 11.3 | 24.1 | 0.00 | 0.00 | 0.00 | 36 | 1022.3 |
| 20260503110759 | 17 | 109 | 11.3 | 24.1 | 0.00 | 0.00 | 0.00 | 46 | 1022.6 |
| 20260503110204 | 17 | 111 | 9.7 | 22.5 | 0.00 | 0.00 | 0.00 | 48 | 1022.6 |
| 20260503110153 | 17 | 107 | 12.9 | 27.4 | 0.00 | 0.00 | 0.00 | 47 | 1022.4 |
| 20260503100152 | 16 | 96 | 14.5 | 24.1 | 0.00 | 0.00 | 0.00 | 47 | 1022.9 |
| 20260503090132 | 16 | 109 | 9.7 | 20.9 | 0.00 | 0.00 | 0.00 | 52 | 1022.8 |
| 20260503081249 | 15 | 76 | 9.7 | 22.5 | 0.00 | 0.00 | 0.00 | 53 | 1022.8 |
| 20260503081241 | 15 | 121 | 8.0 | 22.5 | 0.00 | 0.00 | 0.00 | 52 | 1022.8 |
| 20260503080215 | 15 | 109 | 12.9 | 19.3 | 0.00 | 0.00 | 0.00 | 51 | 1022.8 |
| 20260503080103 | 15 | 97 | 4.8 | 20.9 | 0.00 | 0.00 | 0.00 | 50 | 1022.9 |
| 20260503072709 | 15 | 102 | 6.4 | 8.0 | 0.00 | 0.00 | 0.00 | 47 | 1022.8 |
| 20260503072047 | 15 | 120 | 4.8 | 14.5 | 0.00 | 0.00 | 0.00 | 46 | 1022.6 |
| 20260503071735 | 15 | 99 | 8.0 | 9.7 | 0.00 | 0.00 | 0.00 | 45 | 1022.8 |
| 20260503071635 | 15 | 75 | 1.6 | 14.5 | 0.00 | 0.00 | 0.00 | 46 | 1022.8 |
| 20260503070728 | 15 | 28 | 6.4 | 8.0 | 0.00 | 0.00 | 0.00 | 45 | 1022.8 |
| 20260503070202 | 15 | 68 | 6.4 | 9.7 | 0.00 | 0.00 | 0.00 | 45 | 1022.8 |
| 20260503070152 | 15 | 120 | 3.2 | 9.7 | 0.00 | 0.00 | 0.00 | 45 | 1022.8 |
| 20260503060301 | 12 | 34 | 3.2 | 11.3 | 0.00 | 0.00 | 0.00 | 48 | 1022.7 |
| 20260503054628 | 11 | 85 | 1.6 | 6.4 | 0.00 | 0.00 | 0.00 | 55 | 1022.9 |
| 20260503054147 | 11 | 86 | 4.8 | 6.4 | 0.00 | 0.00 | 0.00 | 55 | 1023.0 |
| 20260503053720 | 11 | 104 | 0.0 | 6.4 | 0.00 | 0.00 | 0.00 | 56 | 1022.9 |
| 20260503053217 | 11 | 104 | 0.0 | 6.4 | 0.00 | 0.00 | 0.00 | 56 | 1022.9 |
| 20260503053149 | 11 | 103 | 3.2 | 6.4 | 0.00 | 0.00 | 0.00 | 57 | 1022.8 |
| 20260503052924 | 11 | 106 | 1.6 | 4.8 | 0.00 | 0.00 | 0.00 | 58 | 1022.8 |
| 20260503052201 | 11 | 111 | 0.0 | 1.6 | 0.00 | 0.00 | 0.00 | 58 | 1022.9 |
| 20260503051127 | 11 | 111 | 0.0 | 0.0 | 0.00 | 0.00 | 0.00 | 58 | 1022.8 |
| 20260503050713 | 11 | 111 | 0.0 | 0.0 | 0.00 | 0.00 | 0.00 | 58 | 1022.8 |
| 20260503050236 | 11 | 111 | 0.0 | 1.6 | 0.00 | 0.00 | 0.00 | 57 | 1022.9 |
| 20260503045640 | 11 | 111 | 0.0 | 1.6 | 0.00 | 0.00 | 0.00 | 57 | 1022.8 |
| 20260503045216 | 11 | 111 | 0.0 | 3.2 | 0.00 | 0.00 | 0.00 | 57 | 1022.8 |
| 20260503045207 | 11 | 111 | 0.0 | 3.2 | 0.00 | 0.00 | 0.00 | 56 | 1022.8 |
| 20260503044145 | 11 | 111 | 0.0 | 3.2 | 0.00 | 0.00 | 0.00 | 56 | 1022.8 |
| 20260503043724 | 11 | 111 | 1.6 | 3.2 | 0.00 | 0.00 | 0.00 | 57 | 1022.7 |
| 20260503043304 | 11 | 111 | 0.0 | 3.2 | 0.00 | 0.00 | 0.00 | 56 | 1022.6 |
| 20260503042754 | 11 | 111 | 0.0 | 3.2 | 0.00 | 0.00 | 0.00 | 56 | 1022.7 |
| 20260503042135 | 11 | 111 | 0.0 | 4.8 | 0.00 | 0.00 | 0.00 | 56 | 1022.7 |
| 20260503041714 | 11 | 111 | 1.6 | 4.8 | 0.00 | 0.00 | 0.00 | 56 | 1022.7 |
| 20260503041705 | 11 | 111 | 0.0 | 4.8 | 0.00 | 0.00 | 0.00 | 57 | 1022.7 |
| 20260503040715 | 11 | 111 | 0.0 | 4.8 | 0.00 | 0.00 | 0.00 | 56 | 1022.8 |
| 20260503040642 | 11 | 111 | 0.0 | 4.8 | 0.00 | 0.00 | 0.00 | 56 | 1022.8 |
| 20260503040110 | 11 | 111 | 0.0 | 0.0 | 0.00 | 0.00 | 0.00 | 56 | 1022.8 |
| 20260503035842 | 11 | 111 | 0.0 | 1.6 | 0.00 | 0.00 | 0.00 | 56 | 1022.8 |
| 20260503034636 | 11 | 111 | 0.0 | 0.0 | 0.00 | 0.00 | 0.00 | 56 | 1022.8 |
| 20260503034238 | 11 | 111 | 0.0 | 1.6 | 0.00 | 0.00 | 0.00 | 56 | 1022.9 |
| 20260503033733 | 11 | 111 | 0.0 | 3.2 | 0.00 | 0.00 | 0.00 | 55 | 1022.9 |
| 20260503033653 | 11 | 111 | 0.0 | 3.2 | 0.00 | 0.00 | 0.00 | 56 | 1022.8 |
| 20260503032713 | 11 | 111 | 3.2 | 8.0 | 0.00 | 0.00 | 0.00 | 55 | 1022.8 |
| 20260503032609 | 11 | 111 | 1.6 | 8.0 | 0.00 | 0.00 | 0.00 | 55 | 1022.8 |
| 20260503031705 | 11 | 116 | 3.2 | 3.2 | 0.00 | 0.00 | 0.00 | 56 | 1022.8 |
| 20260503031245 | 11 | 114 | 1.6 | 3.2 | 0.00 | 0.00 | 0.00 | 56 | 1022.6 |
| 20260503031217 | 12 | 114 | 1.6 | 3.2 | 0.00 | 0.00 | 0.00 | 56 | 1022.6 |
| 20260503030217 | 12 | 114 | 0.0 | 0.0 | 0.00 | 0.00 | 0.00 | 56 | 1022.5 |
| 20260503025902 | 12 | 114 | 0.0 | 0.0 | 0.00 | 0.00 | 0.00 | 56 | 1022.6 |
| 20260502212743 | 13 | 100 | 3.2 | 6.4 | 0.00 | 0.00 | 0.00 | 45 | 1024.9 |
| 20260502212305 | 14 | 102 | 4.8 | 6.4 | 0.00 | 0.00 | 0.00 | 45 | 1024.9 |
| 20260502211627 | 14 | 121 | 1.6 | 6.4 | 0.00 | 0.00 | 0.00 | 45 | 1025.0 |
| 20260502211252 | 14 | 89 | 0.0 | 8.0 | 0.00 | 0.00 | 0.00 | 44 | 1025.0 |
| 20260502210728 | 14 | 89 | 1.6 | 8.0 | 0.00 | 0.00 | 0.00 | 44 | 1024.9 |
| 20260502210531 | 15 | 99 | 3.2 | 9.7 | 0.00 | 0.00 | 0.00 | 42 | 1024.9 |
| 20260502210312 | 14 | 99 | 3.2 | 6.4 | 0.00 | 0.00 | 0.00 | 43 | 1024.9 |
| 20260502205241 | 15 | 107 | 3.2 | 9.7 | 0.00 | 0.00 | 0.00 | 41 | 1024.9 |
| 20260502205228 | 15 | 111 | 3.2 | 8.0 | 0.00 | 0.00 | 0.00 | 41 | 1024.9 |
| 20260502204127 | 15 | 97 | 1.6 | 6.4 | 0.00 | 0.00 | 0.00 | 39 | 1025.0 |
| 20260502203752 | 15 | 90 | 3.2 | 6.4 | 0.00 | 0.00 | 0.00 | 39 | 1024.9 |
| 20260502203140 | 15 | 93 | 1.6 | 9.7 | 0.00 | 0.00 | 0.00 | 38 | 1024.9 |
| 20260502202702 | 15 | 100 | 4.8 | 8.0 | 0.00 | 0.00 | 0.00 | 37 | 1024.9 |
| 20260502202031 | 15 | 109 | 3.2 | 9.7 | 0.00 | 0.00 | 0.00 | 37 | 1024.9 |
| 20260502201728 | 15 | 79 | 6.4 | 9.7 | 0.00 | 0.00 | 0.00 | 36 | 1025.0 |
| 20260502201106 | 16 | 113 | 3.2 | 6.4 | 0.00 | 0.00 | 0.00 | 36 | 1024.9 |
| 20260502200713 | 16 | 96 | 0.0 | 6.4 | 0.00 | 0.00 | 0.00 | 36 | 1024.9 |
| 20260502200144 | 16 | 107 | 3.2 | 8.0 | 0.00 | 0.00 | 0.00 | 36 | 1024.9 |
| 20260502195655 | 16 | 102 | 3.2 | 11.3 | 0.00 | 0.00 | 0.00 | 35 | 1024.8 |
| 20260502195300 | 16 | 106 | 3.2 | 11.3 | 0.00 | 0.00 | 0.00 | 35 | 1024.8 |
| 20260502194625 | 16 | 94 | 8.0 | 11.3 | 0.00 | 0.00 | 0.00 | 35 | 1024.7 |
| 20260502194131 | 16 | 100 | 4.8 | 17.7 | 0.00 | 0.00 | 0.00 | 35 | 1024.7 |
| 20260502193705 | 16 | 128 | 11.3 | 16.1 | 0.00 | 0.00 | 0.00 | 34 | 1024.7 |
| 20260502193129 | 16 | 92 | 11.3 | 17.7 | 0.00 | 0.00 | 0.00 | 34 | 1024.6 |
| 20260502192717 | 16 | 124 | 8.0 | 17.7 | 0.00 | 0.00 | 0.00 | 35 | 1024.7 |
| 20260502192305 | 16 | 97 | 9.7 | 17.7 | 0.00 | 0.00 | 0.00 | 35 | 1024.7 |
| 20260502191757 | 16 | 124 | 8.0 | 19.3 | 0.00 | 0.00 | 0.00 | 35 | 1024.7 |
| 20260502191205 | 16 | 86 | 11.3 | 14.5 | 0.00 | 0.00 | 0.00 | 36 | 1024.7 |
| 20260502191142 | 16 | 100 | 6.4 | 14.5 | 0.00 | 0.00 | 0.00 | 36 | 1024.6 |
| 20260502190156 | 16 | 85 | 4.8 | 14.5 | 0.00 | 0.00 | 0.00 | 36 | 1024.6 |
| 20260502185755 | 17 | 96 | 1.6 | 8.0 | 0.00 | 0.00 | 0.00 | 38 | 1024.6 |
| 20260502185740 | 16 | 68 | 6.4 | 6.4 | 0.00 | 0.00 | 0.00 | 37 | 1024.7 |
| 20260502185203 | 17 | 96 | 1.6 | 4.8 | 0.00 | 0.00 | 0.00 | 38 | 1024.6 |
| 20260502185118 | 17 | 97 | 3.2 | 8.0 | 0.00 | 0.00 | 0.00 | 37 | 1024.6 |